Location: Hochstatterhof
(48.7256°N, 10.3487°E)
Time: 01:28:30
(UTC+00:00)

NOSS 2-3 (C) - Pass Details

Date: 26 September 2023
Orbit: 503 x 1698 km, 63.3° (Epoch: 01 December)

Event Time Altitude Azimuth Distance (km) Brightness Sun altitude
Exits shadow 02:20:04 27° 316° (NW) 1,703 5.6 -27.4°
Maximum altitude 02:23:39 84° 231° (SW) 1,052 4.5 -26.9°
Drops below altitude 10° 02:31:36 10° 144° (SE) 3,326 7.3 -25.8°
Sets 02:34:51 0° 144° (SE) 4,468 8.0 -25.3°
